Hourly Weather Roundup
Issued by NWS Central Illinois

Home | Current Version | Previous Version | Text Only | Print | Product List | Glossary On
Versions: 1 2 3 4 5 6 7 8 9 10 11 12 13 14 15 16 17 18 19 20 21 22 23 24 25 26 27 28 29 30 31 32 33 34 35 36 37 38 39 40 41 42 43 44 45 46 47 48 49 50
000
NZUS43 KILX 171010
HWRILX

AREA WEATHER ROUNDUP
NATIONAL WEATHER SERVICE, LINCOLN IL
500 AM CDT WED SEP 17 2014


CITY           SKY/WX    TMP DP  RH WIND       PRES   REMARKS
BLOOMINGTON    CLEAR     46  42  86 SW3       30.07R
CHAMPAIGN      CLEAR     47  45  93 W5        30.06F
DECATUR        CLEAR     45  44  97 CALM      30.07S
FLORA          FOG       42  42 100 CALM      30.08S VSB 1/2
GALESBURG      PTCLDY    46  46  97 CALM      30.04S
JACKSONVILLE   CLEAR     50  49  95 S3        30.06S
LACON          PTCLDY    44  43  97 CALM      30.05S
LAWRENCEVILLE  FOG       45  44  97 CALM      30.08F VSB 1/4
LITCHFIELD     CLEAR     44  44 100 SW3       30.06S FOG
$$


CITY           SKY/WX    TMP DP  RH WIND       PRES   REMARKS
LINCOLN        PTCLDY    46  44  95 CALM      30.05S
MACOMB         PTCLDY    43  43 100 CALM      30.06F
MATTOON        CLEAR     48  45  89 CALM      30.06S
MT CARMEL AP   FOG       43  43 100 CALM      30.07F VSB 1/2
OLNEY-NOBLE AP FOG       43  43 100 CALM      30.08S VSB 1/2
PARIS          CLEAR     43  43 100 CALM      30.08S FOG
PEORIA         PTCLDY    49  46  90 CALM      30.05F
PONTIAC        CLEAR     45  43  93 CALM      30.05S
RANTOUL        FOG       47  44  90 CALM      30.07S VSB 1/2
ROBINSON       FOG       44  44 100 CALM      30.09F VSB 3/4
SPRINGFIELD    CLEAR     46  44  93 CALM      30.06S
TAYLORVILLE    CLEAR     45  45 100 S3        30.06S FOG
$$

...REGIONAL REPORTS...


CITY           SKY/WX    TMP DP  RH WIND       PRES   REMARKS
CHICAGO O`HARE PTCLDY    50  44  80 CALM      30.04F
KANKAKEE       FOG       42  42  99 CALM      30.06F VSB 1/2
MOLINE         PTCLDY    46  43  89 CALM      30.04S
MOUNT VERNON   CLEAR     43  39  87 CALM      30.07F
PITTSFIELD     PTCLDY    50  49  94 CALM      30.05F FOG
QUINCY         MOCLDY    54  50  86 S9        30.01F
ROCKFORD       CLEAR     43  40  89 CALM      30.06F
$$


CITY           SKY/WX    TMP DP  RH WIND       PRES   REMARKS
BURLINGTON     PTCLDY    51  50  96 SE3       30.02F
CEDAR RAPIDS   CLOUDY    49  48  97 SE3       30.01F
DES MOINES     CLOUDY    56  50  80 S7        29.98F
KIRKSVILLE     CLOUDY    55  53  93 SE5       30.01F
OTTUMWA        CLOUDY    53  50  89 SE6       30.00F
ST LOUIS       PTCLDY    54  51  90 CALM      30.05F
$$


CITY           SKY/WX    TMP DP  RH WIND       PRES   REMARKS
TERRE HAUTE    FOG       43  42  97 CALM      30.08S VSB 1/4
EVANSVILLE     CLEAR     47  45  93 CALM      30.08S FOG
INDIANAPOLIS   PTCLDY    45  44  97 W5        30.07S FOG
LAFAYETTE      FOG       43  43 100 MISG      30.07S VSB 1/4
MADISON        MOCLDY    40  39  97 CALM      30.03S FOG
MILWAUKEE      CLEAR     49  43  80 CALM      30.04S
$$




USA.gov is the U.S. government's official web portal to all federal, state and local government web resources and services.